Location: Broekland
(52.3610°N, 6.2005°E)
Time: 17:13:07
(UTC+00:00)

Cosmos 220 Rocket - Pass Details

Date: 19 May 2025
Orbit: 546 x 580 km, 74.0° (Epoch: 16 June)

Event Time Altitude Azimuth Distance (km) Brightness Sun altitude
Exits shadow 21:57:36 16° 203° (SSW) 1,477 5.6 -14.8°
Maximum altitude 22:00:48 89° 110° (ESE) 558 3.8 -15.0°
Drops below altitude 10° 22:04:52 10° 26° (NNE) 1,832 7.1 -15.2°
Sets 22:07:04 0° 26° (NNE) 2,729 8.1 -15.3°
